Flag for United Kingdom Weather past 2 weeks in King's Lynn, England, United Kingdom

Now
59 °F

Partly sunny.


Feels Like: 57 °F
Forecast: 47 / 55 °F
Wind: 13 mph from Southwest

Location: Marham

Current Time: May 24, 2015 at 10:53:57 AM

Latest Report: May 24, 2015 at 9:50 AM


Visibility: N/A

Pressure: 30.07 "Hg

Humidity: 82%

Dew point: 54 °F

Location of King's LynnLocation

Historic Weather in King's Lynn — Graph

°F

King's Lynn temperature yesterday

Maximum temperature yesterday: 59 °F (at 1:50 PM)
Minimum temperature yesterday: 48 °F (at 11:50 PM)
Average temperature yesterday: 55 °F

Past Weeks' High & Low Weather Summary

 TemperatureHumidityPressure
High70 °F (May 11, 2:50 PM)100% (May 14, 12:50 AM)30.30 "Hg (May 14, 12:50 AM)
Low36 °F (May 14, 2:50 AM)34% (May 12, 5:50 PM)29.50 "Hg (May 18, 12:50 PM)
Average53 °F74%30.05 "Hg
* Reported May 9 8:50 AM — May 24 8:50 AM, King's Lynn, Weather by CustomWeather, © 2015

Note: Actual official high and low records may vary slightly from our data, if they occured in-between our weather recording intervals... More about our weather records

Advertising

King's Lynn weather history for previous 24 hours

 ConditionsComfort  
Time TempWeatherWind HumidityBarometerVisibility
8:50 AM
Sun, May 24
57 °FScattered clouds.13 mph77%30.09 "HgN/A
7:50 AM54 °FPartly sunny.9 mph82%30.09 "HgN/A
6:50 AM48 °FPartly sunny.8 mph94%30.09 "HgN/A
5:50 AM45 °FPartly sunny.6 mph93%30.12 "HgN/A
4:50 AM45 °FQuite cool.7 mph93%30.12 "HgN/A
3:50 AM45 °FQuite cool.7 mph93%30.15 "HgN/A
2:50 AM45 °FQuite cool.7 mph93%30.15 "HgN/A
1:50 AM46 °FPassing clouds.7 mph87%30.18 "HgN/A
12:50 AM46 °FCool.7 mph87%30.21 "HgN/A
11:50 PM
Sat, May 23
48 °FCool.7 mph82%30.21 "HgN/A
10:50 PM50 °FCool.7 mph76%30.21 "HgN/A
9:50 PM52 °FPassing clouds.8 mph77%30.24 "HgN/A
8:50 PM55 °FPartly sunny.9 mph67%30.21 "HgN/A
7:50 PM57 °FPartly sunny.8 mph63%30.21 "HgN/A
6:50 PM57 °FOvercast.7 mph67%30.24 "HgN/A
5:50 PM59 °FOvercast.6 mph63%30.24 "HgN/A
4:50 PM59 °FPartly sunny.6 mph63%30.24 "HgN/A
3:50 PM59 °FOvercast.8 mph63%30.24 "HgN/A
2:50 PM59 °FOvercast.6 mph63%30.27 "HgN/A
1:50 PM59 °FOvercast.9 mph63%30.27 "HgN/A
12:50 PM57 °FOvercast.9 mph67%30.30 "HgN/A
11:50 AM57 °FOvercast.10 mph67%30.30 "HgN/A
10:50 AM54 °FPartly sunny.12 mph67%30.30 "HgN/A
Weather by CustomWeather, © 2015

See weather overviewHow to use our weather pages